QPF
0.00 0.00 0.00 0.00 0.00 0.00 0.00 0.00 0.00 0.00 0.00 0.00 0.00 0.00 0.00 0.00 0.00 0.00 0.00 0.00 0.00 0.00 0.00 0.00 0.00 0.00 0.00 0.00 0.00 0.00 0.00 0.00 0.00 0.00 0.01 0.01 0.01 0.01 0.01 0.01 0.01 0.00 0.00 0.00
0.00 0.00 0.00 0.00 0.00 0.00 0.00 0.00 0.00 0.00 0.00 0.00 0.00 0.00 0.00 0.00 0.00 0.00 0.00 0.00 0.00 0.00 0.00 0.00 0.00 0.00 0.00 0.00 0.00 0.00 0.00 0.00 0.00 0.00 0.01 0.01 0.00 0.01 0.01 0.01 0.00 0.00 0.00 0.00
0.00 0.00 0.00 0.00 0.00 0.00 0.00 0.00 0.00 0.00 0.00 0.00 0.00 0.00 0.00 0.00 0.00 0.00 0.00 0.00 0.00 0.00 0.00 0.00 0.00 0.00 0.00 0.00 0.00 0.00 0.00 0.00 0.00 0.00 0.00 0.00 0.00 0.00 0.00 0.00 0.00 0.00 0.00 0.00
0.00 0.00 0.00 0.00 0.00 0.00 0.00 0.00 0.00 0.00 0.00 0.00 0.00 0.00 0.00 0.00 0.00 0.00 0.00 0.00 0.00 0.00 0.00 0.00 0.00 0.00 0.00 0.00 0.00 0.00 0.00 0.00 0.00 0.00 0.00 0.00 0.00 0.00 0.00 0.00 0.00 0.00 0.00 0.00
0.00 0.00 0.00 0.00 0.00 0.00 0.00 0.00 0.00 0.00 0.00 0.00 0.00 0.00 0.00 0.00 0.00 0.00 0.00 0.00 0.00 0.00 0.00 0.00 0.00 0.00 0.00 0.00 0.00 0.00 0.00 0.00 0.00 0.00 0.00 0.00 0.00 0.00 0.00 0.00 0.00 0.00 0.00 0.00
0.00 0.00 0.00 0.00 0.00 0.00 0.00 0.00 0.00 0.00 0.00 0.00 0.00 0.00 0.00 0.00 0.00 0.00 0.00 0.00 0.00 0.00 0.00 0.00 0.00 0.00 0.00 0.00 0.00 0.00 0.00 0.00 0.00 0.00 0.00 0.00 0.00 0.00 0.00 0.00 0.00 0.00 0.00 0.00
0.00 0.00 0.00 0.00 0.00 0.00 0.00 0.00 0.00 0.00 0.00 0.00 0.00 0.00 0.00 0.00 0.00 0.00 0.00 0.00 0.00 0.00 0.00 0.00 0.00 0.00 0.00 0.00 0.00 0.00 0.00 0.00 0.00 0.00 0.00 0.00 0.00 0.00 0.00 0.00 0.00 0.00 0.00 0.00
0.00 0.00 0.00 0.00 0.00 0.00 0.00 0.00 0.00 0.00 0.00 0.00 0.00 0.00 0.00 0.00 0.00 0.00 0.00 0.00 0.00 0.00 0.00 0.00 0.00 0.00 0.00 0.00 0.00 0.00 0.00 0.00 0.00 0.00 0.00 0.00 0.00 0.00 0.00 0.00 0.00 0.00 0.00 0.00
0.00 0.00 0.00 0.00 0.00 0.00 0.00 0.00 0.00 0.00 0.00 0.00 0.00 0.00 0.00 0.00 0.00 0.00 0.00 0.00 0.00 0.00 0.00 0.00 0.00 0.00 0.00 0.00 0.00 0.00 0.00 0.00 0.00 0.00 0.00 0.00 0.00 0.00 0.00 0.00 0.00 0.00 0.00 0.00
0.00 0.00 0.00 0.00 0.00 0.00 0.00 0.00 0.00 0.00 0.00 0.00 0.00 0.00 0.00 0.00 0.00 0.00 0.00 0.00 0.00 0.00 0.00 0.00 0.00 0.00 0.00 0.00 0.00 0.00 0.00 0.00 0.00 0.00 0.00 0.00 0.00 0.00 0.00 0.00 0.00 0.00 0.00 0.00
0.00 0.00 0.00 0.00 0.00 0.00 0.00 0.00 0.00 0.00 0.00 0.00 0.00 0.00 0.00 0.00 0.00 0.00 0.00 0.00 0.00 0.00 0.00 0.00 0.00 0.00 0.00 0.00 0.00 0.00 0.00 0.00 0.00 0.00 0.00 0.00 0.00 0.00 0.00 0.00 0.00 0.00 0.00 0.00
0.00 0.00 0.00 0.00 0.00 0.00 0.00 0.00 0.00 0.00 0.00 0.00 0.00 0.00 0.00 0.00 0.00 0.00 0.00 0.00 0.00 0.00 0.00 0.00 0.00 0.00 0.00 0.00 0.00 0.00 0.00 0.00 0.00 0.00 0.00 0.00 0.00 0.00 0.00 0.00 0.00 0.00 0.00 0.00
0.00 0.00 0.00 0.00 0.00 0.00 0.00 0.00 0.00 0.00 0.00 0.00 0.00 0.00 0.00 0.00 0.00 0.00 0.00 0.00 0.00 0.00 0.00 0.00 0.00 0.00 0.00 0.00 0.00 0.00 0.00 0.00 0.00 0.00 0.00 0.00 0.00 0.00 0.00 0.00 0.00 0.00 0.00 0.00
0.00 0.00 0.00 0.00 0.00 0.00 0.00 0.00 0.00 0.00 0.00 0.00 0.00 0.00 0.00 0.00 0.00 0.00 0.00 0.00 0.00 0.00 0.00 0.00 0.00 0.00 0.00 0.00 0.00 0.00 0.00 0.00 0.00 0.00 0.00 0.00 0.00 0.00 0.00 0.00 0.00 0.00 0.00 0.00
0.00 0.00 0.00 0.00 0.00 0.00 0.00 0.00 0.00 0.00 0.00 0.00 0.00 0.00 0.00 0.00 0.00 0.00 0.00 0.00 0.00 0.00 0.00 0.00 0.00 0.00 0.00 0.00 0.00 0.00 0.00 0.00 0.00 0.00 0.00 0.00 0.00 0.00 0.00 0.00 0.00 0.00 0.00 0.00
0.00 0.00 0.00 0.00 0.00 0.00 0.00 0.00 0.00 0.00 0.00 0.00 0.00 0.00 0.00 0.00 0.00 0.00 0.00 0.00 0.00 0.00 0.00 0.00 0.00 0.00 0.00 0.00 0.00 0.00 0.00 0.00 0.00 0.00 0.00 0.00 0.00 0.00 0.00 0.00 0.00 0.00 0.00 0.00
0.00 0.00 0.00 0.00 0.00 0.00 0.00 0.00 0.00 0.00 0.00 0.00 0.00 0.00 0.00 0.00 0.00 0.00 0.00 0.00 0.00 0.00 0.00 0.00 0.00 0.00 0.00 0.00 0.00 0.00 0.00 0.00 0.00 0.00 0.00 0.00 0.00 0.00 0.00 0.00 0.00 0.00 0.00 0.00
0.00 0.00 0.00 0.00 0.00 0.00 0.00 0.00 0.00 0.00 0.00 0.00 0.00 0.00 0.00 0.00 0.00 0.00 0.00 0.00 0.00 0.00 0.00 0.00 0.00 0.00 0.00 0.00 0.00 0.00 0.00 0.00 0.00 0.00 0.00 0.00 0.00 0.00 0.00 0.00 0.00 0.00 0.00 0.00
0.00 0.00 0.00 0.00 0.00 0.00 0.00 0.00 0.00 0.00 0.00 0.00 0.00 0.00 0.00 0.00 0.00 0.00 0.00 0.00 0.00 0.00 0.00 0.00 0.00 0.00 0.00 0.00 0.00 0.00 0.00 0.00 0.00 0.00 0.00 0.00 0.00 0.00 0.00 0.00 0.00 0.00 0.01 0.01
0.00 0.00 0.00 0.00 0.00 0.00 0.00 0.00 0.00 0.00 0.00 0.00 0.00 0.00 0.00 0.00 0.00 0.00 0.00 0.00 0.00 0.00 0.00 0.00 0.00 0.00 0.00 0.00 0.00 0.00 0.00 0.00 0.00 0.00 0.00 0.00 0.00 0.00 0.00 0.00 0.00 0.01 0.01 0.01
0.00 0.00 0.00 0.00 0.00 0.00 0.00 0.00 0.00 0.00 0.00 0.00 0.00 0.00 0.00 0.00 0.00 0.00 0.00 0.00 0.00 0.00 0.00 0.00 0.00 0.00 0.00 0.00 0.00 0.00 0.00 0.00 0.00 0.00 0.00 0.01 0.01 0.00 0.01 0.01 0.01 0.01 0.01 0.01
0.00 0.00 0.00 0.00 0.00 0.00 0.00 0.00 0.00 0.00 0.00 0.00 0.00 0.00 0.00 0.00 0.00 0.00 0.00 0.00 0.00 0.00 0.00 0.00 0.00 0.00 0.00 0.00 0.00 0.00 0.00 0.00 0.00 0.00 0.01 0.01 0.01 0.01 0.01 0.01 0.01 0.01 0.01 0.01
0.00 0.00 0.00 0.00 0.00 0.00 0.00 0.00 0.00 0.00 0.00 0.00 0.00 0.00 0.00 0.00 0.00 0.00 0.00 0.00 0.00 0.00 0.00 0.00 0.00 0.00 0.00 0.01 0.00 0.00 0.01 0.01 0.01 0.01 0.01 0.01 0.01 0.01 0.01 0.01 0.01 0.01 0.01 0.01
0.00 0.00 0.00 0.00 0.00 0.00 0.00 0.00 0.00 0.00 0.00 0.00 0.00 0.00 0.00 0.00 0.00 0.00 0.00 0.00 0.00 0.00 0.00 0.00 0.00 0.00 0.01 0.01 0.01 0.01 0.01 0.01 0.01 0.01 0.01 0.01 0.01 0.01 0.01 0.01 0.01 0.01 0.01 0.01
0.00 0.00 0.00 0.00 0.00 0.00 0.00 0.00 0.00 0.00 0.00 0.00 0.00 0.00 0.00 0.00 0.00 0.00 0.00 0.00 0.00 0.00 0.00 0.00 0.01 0.01 0.01 0.01 0.01 0.01 0.01 0.01 0.01 0.01 0.01 0.01 0.01 0.01 0.01 0.01 0.01 0.01 0.01 0.01
0.00 0.00 0.00 0.00 0.00 0.00 0.00 0.00 0.00 0.00 0.00 0.00 0.00 0.00 0.00 0.00 0.00 0.00 0.00 0.00 0.00 0.00 0.00 0.00 0.01 0.01 0.01 0.01 0.01 0.01 0.01 0.01 0.01 0.01 0.01 0.01 0.01 0.01 0.01 0.01 0.01 0.01 0.01 0.01
0.00 0.00 0.00 0.00 0.00 0.00 0.00 0.00 0.00 0.00 0.00 0.00 0.00 0.00 0.00 0.00 0.00 0.00 0.00 0.00 0.01 0.01 0.01 0.01 0.01 0.01 0.01 0.01 0.01 0.01 0.01 0.01 0.01 0.01 0.01 0.01 0.01 0.01 0.01 0.01 0.01 0.01 0.01 0.01
MSLP
1021.35 1021.28 1021.13 1020.89 1020.56 1020.12 1019.61 1019.02 1018.41 1017.79 1017.22 1016.71 1016.30 1015.99 1015.77 1015.62 1015.52 1015.42 1015.31 1015.17 1015.00 1014.81 1014.64 1014.51 1014.45 1014.50 1014.66 1014.95 1015.33 1015.78 1016.27 1016.78 1017.27 1017.74 1018.17 1018.58 1018.96 1019.33 1019.67 1019.99 1020.27 1020.48 1020.61 1020.65
1021.31 1021.06 1020.74 1020.35 1019.91 1019.41 1018.87 1018.32 1017.77 1017.25 1016.78 1016.38 1016.05 1015.80 1015.61 1015.46 1015.32 1015.18 1015.02 1014.83 1014.61 1014.38 1014.17 1014.02 1013.93 1013.95 1014.07 1014.31 1014.63 1015.03 1015.47 1015.93 1016.40 1016.86 1017.31 1017.74 1018.17 1018.59 1018.99 1019.37 1019.70 1019.96 1020.14 1020.22
1021.25 1020.83 1020.36 1019.83 1019.28 1018.72 1018.18 1017.67 1017.20 1016.78 1016.42 1016.12 1015.88 1015.69 1015.52 1015.37 1015.22 1015.05 1014.85 1014.62 1014.37 1014.13 1013.90 1013.73 1013.63 1013.62 1013.70 1013.88 1014.13 1014.46 1014.83 1015.23 1015.66 1016.09 1016.53 1016.98 1017.44 1017.89 1018.33 1018.75 1019.12 1019.42 1019.64 1019.75
1021.13 1020.58 1019.97 1019.34 1018.72 1018.14 1017.61 1017.15 1016.76 1016.45 1016.19 1015.99 1015.83 1015.69 1015.56 1015.41 1015.24 1015.04 1014.81 1014.55 1014.28 1014.03 1013.80 1013.61 1013.50 1013.45 1013.49 1013.61 1013.80 1014.05 1014.34 1014.68 1015.05 1015.45 1015.87 1016.32 1016.79 1017.27 1017.73 1018.17 1018.56 1018.88 1019.12 1019.26
1020.90 1020.27 1019.59 1018.91 1018.27 1017.70 1017.22 1016.83 1016.53 1016.31 1016.15 1016.04 1015.94 1015.83 1015.70 1015.55 1015.35 1015.12 1014.86 1014.58 1014.29 1014.02 1013.78 1013.59 1013.46 1013.39 1013.38 1013.44 1013.56 1013.74 1013.97 1014.24 1014.56 1014.92 1015.33 1015.77 1016.24 1016.72 1017.20 1017.65 1018.04 1018.37 1018.60 1018.74
1020.57 1019.90 1019.20 1018.53 1017.92 1017.41 1017.00 1016.70 1016.50 1016.37 1016.29 1016.23 1016.17 1016.07 1015.94 1015.76 1015.52 1015.25 1014.95 1014.64 1014.33 1014.05 1013.80 1013.59 1013.44 1013.34 1013.30 1013.31 1013.37 1013.48 1013.65 1013.87 1014.15 1014.48 1014.87 1015.30 1015.77 1016.25 1016.73 1017.17 1017.56 1017.87 1018.10 1018.23
1020.13 1019.48 1018.83 1018.22 1017.69 1017.26 1016.95 1016.74 1016.63 1016.57 1016.55 1016.53 1016.47 1016.37 1016.20 1015.98 1015.70 1015.38 1015.04 1014.69 1014.36 1014.06 1013.79 1013.57 1013.39 1013.26 1013.18 1013.15 1013.16 1013.23 1013.35 1013.53 1013.78 1014.09 1014.47 1014.90 1015.36 1015.84 1016.30 1016.73 1017.10 1017.39 1017.60 1017.72
1019.63 1019.04 1018.47 1017.96 1017.54 1017.23 1017.02 1016.90 1016.86 1016.86 1016.87 1016.85 1016.78 1016.65 1016.45 1016.17 1015.84 1015.47 1015.09 1014.70 1014.34 1014.02 1013.73 1013.49 1013.29 1013.13 1013.02 1012.95 1012.93 1012.96 1013.05 1013.21 1013.43 1013.73 1014.10 1014.52 1014.98 1015.44 1015.89 1016.30 1016.65 1016.93 1017.11 1017.21
1019.11 1018.61 1018.15 1017.77 1017.47 1017.27 1017.16 1017.13 1017.14 1017.17 1017.18 1017.15 1017.05 1016.87 1016.62 1016.29 1015.91 1015.50 1015.08 1014.67 1014.28 1013.93 1013.62 1013.36 1013.14 1012.96 1012.82 1012.72 1012.67 1012.68 1012.75 1012.89 1013.10 1013.39 1013.75 1014.16 1014.61 1015.06 1015.49 1015.87 1016.20 1016.45 1016.61 1016.70
1018.64 1018.24 1017.90 1017.64 1017.46 1017.36 1017.33 1017.35 1017.40 1017.43 1017.43 1017.37 1017.23 1017.01 1016.71 1016.34 1015.92 1015.48 1015.03 1014.60 1014.19 1013.82 1013.49 1013.21 1012.96 1012.76 1012.60 1012.48 1012.41 1012.40 1012.46 1012.59 1012.80 1013.07 1013.42 1013.82 1014.24 1014.67 1015.07 1015.43 1015.73 1015.95 1016.10 1016.18
1018.27 1017.97 1017.74 1017.58 1017.50 1017.48 1017.51 1017.56 1017.61 1017.63 1017.60 1017.50 1017.31 1017.05 1016.71 1016.32 1015.88 1015.42 1014.96 1014.51 1014.10 1013.71 1013.37 1013.06 1012.80 1012.57 1012.38 1012.25 1012.16 1012.14 1012.19 1012.31 1012.51 1012.78 1013.11 1013.48 1013.88 1014.27 1014.64 1014.97 1015.23 1015.44 1015.57 1015.65
1018.03 1017.81 1017.67 1017.60 1017.59 1017.62 1017.67 1017.73 1017.76 1017.75 1017.68 1017.54 1017.32 1017.02 1016.66 1016.25 1015.81 1015.35 1014.89 1014.44 1014.01 1013.61 1013.25 1012.92 1012.63 1012.38 1012.18 1012.02 1011.93 1011.90 1011.95 1012.06 1012.26 1012.51 1012.82 1013.16 1013.52 1013.88 1014.21 1014.49 1014.73 1014.91 1015.03 1015.10
1017.91 1017.77 1017.71 1017.70 1017.73 1017.78 1017.84 1017.87 1017.87 1017.82 1017.70 1017.52 1017.26 1016.95 1016.57 1016.16 1015.72 1015.26 1014.80 1014.35 1013.92 1013.50 1013.12 1012.76 1012.45 1012.17 1011.95 1011.79 1011.69 1011.66 1011.71 1011.82 1012.01 1012.25 1012.54 1012.85 1013.17 1013.48 1013.77 1014.02 1014.22 1014.38 1014.49 1014.56
1017.91 1017.83 1017.82 1017.85 1017.91 1017.96 1017.99 1017.99 1017.95 1017.84 1017.68 1017.45 1017.17 1016.83 1016.45 1016.04 1015.60 1015.14 1014.68 1014.22 1013.77 1013.33 1012.92 1012.54 1012.20 1011.90 1011.66 1011.49 1011.39 1011.37 1011.43 1011.55 1011.74 1011.98 1012.25 1012.53 1012.82 1013.09 1013.33 1013.54 1013.72 1013.85 1013.95 1014.02
1017.97 1017.95 1017.98 1018.04 1018.10 1018.13 1018.13 1018.09 1017.99 1017.83 1017.61 1017.35 1017.03 1016.67 1016.28 1015.86 1015.42 1014.96 1014.49 1014.01 1013.53 1013.06 1012.62 1012.20 1011.83 1011.51 1011.27 1011.10 1011.01 1011.00 1011.08 1011.22 1011.42 1011.65 1011.92 1012.18 1012.44 1012.68 1012.89 1013.07 1013.21 1013.33 1013.43 1013.50
1018.06 1018.09 1018.15 1018.22 1018.27 1018.27 1018.23 1018.13 1017.97 1017.75 1017.49 1017.18 1016.83 1016.44 1016.04 1015.60 1015.14 1014.67 1014.17 1013.66 1013.15 1012.65 1012.16 1011.72 1011.32 1010.99 1010.74 1010.58 1010.51 1010.52 1010.62 1010.79 1011.00 1011.25 1011.52 1011.77 1012.02 1012.23 1012.42 1012.58 1012.71 1012.81 1012.91 1012.99
1018.13 1018.20 1018.28 1018.35 1018.37 1018.34 1018.24 1018.08 1017.86 1017.58 1017.26 1016.90 1016.52 1016.11 1015.67 1015.21 1014.73 1014.23 1013.71 1013.17 1012.62 1012.08 1011.57 1011.09 1010.68 1010.34 1010.09 1009.94 1009.89 1009.94 1010.06 1010.25 1010.49 1010.75 1011.02 1011.28 1011.52 1011.72 1011.90 1012.05 1012.17 1012.28 1012.39 1012.48
1018.15 1018.25 1018.33 1018.37 1018.36 1018.27 1018.11 1017.89 1017.60 1017.26 1016.89 1016.49 1016.06 1015.62 1015.16 1014.68 1014.17 1013.65 1013.10 1012.53 1011.96 1011.39 1010.85 1010.36 1009.94 1009.60 1009.35 1009.22 1009.19 1009.26 1009.41 1009.62 1009.88 1010.16 1010.43 1010.69 1010.93 1011.13 1011.31 1011.46 1011.60 1011.72 1011.85 1011.97
1018.10 1018.19 1018.25 1018.25 1018.18 1018.03 1017.80 1017.51 1017.16 1016.76 1016.34 1015.89 1015.43 1014.97 1014.48 1013.99 1013.47 1012.93 1012.37 1011.79 1011.20 1010.62 1010.08 1009.59 1009.16 1008.83 1008.60 1008.48 1008.46 1008.54 1008.70 1008.93 1009.19 1009.46 1009.74 1010.00 1010.24 1010.45 1010.64 1010.81 1010.97 1011.12 1011.27 1011.43
1017.94 1018.01 1018.02 1017.95 1017.81 1017.58 1017.28 1016.92 1016.50 1016.05 1015.59 1015.11 1014.63 1014.15 1013.66 1013.17 1012.65 1012.12 1011.56 1010.99 1010.41 1009.85 1009.32 1008.83 1008.42 1008.10 1007.88 1007.76 1007.75 1007.82 1007.98 1008.19 1008.44 1008.70 1008.97 1009.23 1009.46 1009.68 1009.89 1010.08 1010.27 1010.46 1010.66 1010.86
1017.67 1017.67 1017.61 1017.46 1017.23 1016.92 1016.54 1016.11 1015.64 1015.15 1014.66 1014.17 1013.68 1013.21 1012.73 1012.25 1011.76 1011.26 1010.73 1010.19 1009.65 1009.11 1008.61 1008.15 1007.76 1007.44 1007.22 1007.10 1007.08 1007.13 1007.26 1007.44 1007.66 1007.90 1008.14 1008.38 1008.62 1008.85 1009.07 1009.30 1009.53 1009.77 1010.02 1010.28
1017.25 1017.17 1017.01 1016.77 1016.45 1016.06 1015.61 1015.12 1014.61 1014.10 1013.59 1013.10 1012.63 1012.18 1011.74 1011.29 1010.84 1010.38 1009.90 1009.41 1008.91 1008.42 1007.95 1007.52 1007.15 1006.85 1006.63 1006.49 1006.44 1006.46 1006.55 1006.69 1006.86 1007.06 1007.28 1007.51 1007.74 1007.98 1008.24 1008.50 1008.78 1009.07 1009.38 1009.68
1016.65 1016.48 1016.22 1015.89 1015.48 1015.02 1014.52 1013.99 1013.46 1012.94 1012.44 1011.97 1011.53 1011.12 1010.72 1010.32 1009.92 1009.51 1009.09 1008.65 1008.20 1007.75 1007.32 1006.92 1006.57 1006.27 1006.05 1005.89 1005.80 1005.79 1005.83 1005.92 1006.05 1006.22 1006.41 1006.63 1006.87 1007.13 1007.41 1007.72 1008.05 1008.40 1008.76 1009.11
1015.87 1015.60 1015.25 1014.84 1014.37 1013.86 1013.32 1012.78 1012.25 1011.75 1011.28 1010.84 1010.44 1010.07 1009.71 1009.36 1009.01 1008.64 1008.26 1007.87 1007.46 1007.05 1006.65 1006.28 1005.94 1005.65 1005.41 1005.23 1005.12 1005.07 1005.08 1005.13 1005.24 1005.38 1005.56 1005.78 1006.04 1006.33 1006.65 1007.00 1007.39 1007.79 1008.19 1008.59
1014.89 1014.54 1014.13 1013.66 1013.15 1012.62 1012.08 1011.55 1011.04 1010.57 1010.14 1009.74 1009.38 1009.05 1008.73 1008.41 1008.09 1007.75 1007.40 1007.03 1006.65 1006.26 1005.88 1005.52 1005.19 1004.90 1004.66 1004.48 1004.36 1004.29 1004.28 1004.32 1004.42 1004.57 1004.76 1005.00 1005.29 1005.62 1005.99 1006.39 1006.82 1007.26 1007.71 1008.14
1013.73 1013.33 1012.88 1012.39 1011.87 1011.35 1010.84 1010.34 1009.88 1009.45 1009.06 1008.71 1008.38 1008.07 1007.77 1007.47 1007.15 1006.82 1006.47 1006.10 1005.72 1005.34 1004.97 1004.62 1004.29 1004.01 1003.78 1003.61 1003.50 1003.44 1003.45 1003.51 1003.63 1003.81 1004.04 1004.32 1004.66 1005.03 1005.45 1005.90 1006.37 1006.84 1007.31 1007.75
1012.42 1012.00 1011.54 1011.06 1010.57 1010.09 1009.63 1009.19 1008.78 1008.40 1008.05 1007.73 1007.43 1007.13 1006.82 1006.51 1006.18 1005.82 1005.45 1005.07 1004.68 1004.29 1003.92 1003.57 1003.26 1003.00 1002.80 1002.66 1002.58 1002.57 1002.62 1002.73 1002.91 1003.14 1003.43 1003.77 1004.16 1004.59 1005.05 1005.53 1006.02 1006.51 1006.98 1007.41
Thickness
5546 5546 5543 5546 5548 5543 5540 5549 5554 5568 5566 5570 5566 5563 5560 5557 5555 5552 5551 5548 5546 5543 5542 5539 5536 5532 5528 5524 5519 5513 5508 5505 5501 5497 5492 5487 5483 5478 5474 5471 5468 5466 5463 5460
5539 5541 5538 5539 5548 5546 5545 5546 5550 5554 5559 5566 5561 5556 5553 5553 5550 5548 5547 5545 5542 5539 5537 5534 5531 5528 5523 5518 5513 5507 5503 5499 5495 5490 5485 5480 5476 5471 5467 5463 5460 5457 5454 5452
5544 5538 5536 5554 5562 5554 5548 5549 5548 5550 5558 5559 5553 5551 5549 5547 5544 5543 5541 5539 5537 5534 5532 5529 5526 5522 5518 5513 5507 5501 5497 5493 5488 5483 5478 5474 5469 5464 5460 5456 5452 5449 5447 5443
5531 5535 5541 5568 5554 5551 5548 5549 5546 5547 5550 5549 5546 5544 5541 5540 5538 5537 5535 5532 5531 5528 5525 5522 5518 5514 5509 5505 5499 5494 5490 5486 5482 5476 5472 5467 5462 5457 5453 5449 5445 5442 5439 5435
5521 5531 5548 5560 5548 5540 5540 5548 5547 5542 5542 5541 5537 5535 5540 5536 5531 5529 5526 5524 5522 5520 5517 5514 5511 5506 5501 5497 5492 5488 5484 5480 5475 5470 5465 5460 5455 5451 5446 5441 5437 5434 5430 5427
5513 5516 5539 5556 5541 5533 5533 5544 5541 5534 5533 5531 5526 5532 5540 5530 5523 5520 5517 5515 5513 5511 5508 5505 5503 5498 5493 5490 5486 5482 5478 5474 5468 5462 5457 5453 5449 5444 5438 5434 5430 5425 5422 5418
5506 5509 5536 5543 5530 5523 5533 5541 5530 5526 5524 5521 5519 5523 5523 5518 5514 5511 5508 5505 5502 5501 5499 5497 5492 5488 5485 5483 5480 5476 5471 5466 5461 5455 5450 5446 5441 5436 5430 5425 5421 5417 5414 5410
5503 5502 5525 5532 5520 5525 5531 5524 5518 5516 5514 5511 5511 5510 5508 5506 5504 5501 5499 5496 5493 5491 5490 5487 5482 5478 5477 5475 5473 5467 5462 5457 5453 5448 5442 5437 5433 5428 5422 5417 5413 5409 5406 5403
5517 5529 5531 5520 5520 5518 5511 5510 5509 5506 5504 5500 5499 5499 5498 5496 5494 5492 5490 5487 5484 5481 5480 5478 5474 5470 5469 5468 5463 5458 5453 5449 5445 5440 5435 5430 5425 5420 5415 5409 5405 5403 5399 5396
5505 5519 5517 5512 5509 5505 5501 5499 5498 5495 5492 5489 5489 5489 5487 5486 5484 5483 5481 5478 5474 5471 5470 5470 5466 5462 5460 5457 5452 5448 5445 5441 5436 5432 5427 5422 5417 5412 5407 5403 5399 5395 5391 5388
5499 5509 5506 5507 5500 5496 5492 5488 5486 5484 5481 5478 5477 5477 5476 5475 5474 5472 5469 5467 5463 5461 5460 5460 5457 5453 5450 5446 5442 5439 5436 5432 5428 5423 5418 5414 5409 5405 5400 5396 5392 5388 5384 5380
5503 5504 5496 5498 5491 5485 5480 5478 5475 5472 5471 5468 5465 5464 5464 5463 5462 5460 5458 5456 5453 5451 5450 5449 5447 5444 5440 5437 5433 5430 5427 5424 5420 5415 5410 5405 5401 5396 5391 5386 5382 5377 5373 5369
5489 5484 5480 5480 5476 5472 5468 5465 5462 5459 5457 5456 5455 5452 5451 5450 5449 5447 5446 5444 5443 5441 5440 5439 5437 5435 5432 5428 5424 5421 5419 5415 5411 5406 5402 5397 5392 5389 5385 5379 5373 5369 5365 5361
5471 5466 5466 5466 5464 5459 5455 5451 5448 5445 5444 5443 5442 5440 5438 5437 5437 5436 5436 5434 5432 5430 5429 5429 5428 5427 5424 5420 5416 5413 5410 5406 5401 5398 5393 5389 5384 5380 5376 5372 5367 5363 5358 5353
5458 5453 5452 5450 5447 5444 5440 5437 5435 5436 5435 5433 5431 5428 5427 5426 5427 5427 5426 5423 5421 5421 5420 5420 5419 5419 5415 5411 5407 5404 5401 5398 5393 5389 5385 5380 5376 5371 5367 5363 5359 5354 5349 5345
5444 5440 5436 5434 5433 5431 5428 5426 5424 5425 5424 5421 5420 5419 5417 5416 5415 5416 5415 5413 5412 5413 5413 5411 5411 5410 5406 5402 5398 5395 5392 5388 5384 5380 5376 5371 5367 5362 5358 5354 5350 5345 5341 5337
5428 5428 5425 5421 5421 5419 5416 5414 5412 5412 5411 5410 5410 5409 5407 5406 5406 5408 5409 5406 5404 5403 5403 5402 5402 5401 5397 5393 5389 5387 5384 5380 5374 5371 5367 5363 5359 5355 5350 5346 5342 5337 5334 5329
5415 5414 5411 5408 5407 5405 5405 5403 5401 5400 5400 5400 5399 5397 5397 5397 5399 5401 5400 5397 5396 5396 5395 5394 5393 5391 5388 5384 5380 5378 5375 5372 5368 5364 5360 5355 5351 5347 5342 5338 5334 5330 5326 5320
5401 5399 5397 5395 5393 5392 5391 5392 5391 5391 5390 5388 5388 5388 5389 5389 5389 5390 5388 5386 5386 5388 5391 5388 5384 5381 5379 5376 5372 5369 5366 5363 5359 5356 5351 5347 5343 5339 5335 5331 5327 5323 5318 5313
5388 5386 5385 5384 5383 5380 5381 5382 5381 5381 5381 5379 5378 5379 5381 5382 5381 5379 5378 5378 5380 5380 5380 5377 5374 5371 5369 5367 5363 5360 5357 5354 5351 5347 5343 5339 5335 5332 5327 5323 5319 5315 5311 5307
5377 5376 5375 5374 5374 5374 5372 5372 5371 5372 5372 5370 5368 5369 5371 5373 5371 5368 5368 5372 5376 5371 5368 5367 5364 5362 5360 5357 5354 5352 5349 5345 5342 5339 5335 5332 5328 5324 5320 5316 5312 5308 5304 5300
5368 5367 5367 5366 5365 5366 5366 5363 5362 5361 5362 5361 5361 5360 5360 5362 5363 5362 5362 5362 5365 5361 5359 5358 5356 5353 5350 5347 5346 5343 5341 5338 5335 5331 5328 5325 5321 5318 5314 5310 5307 5303 5299 5295
5359 5358 5357 5356 5356 5357 5357 5356 5354 5353 5353 5353 5353 5353 5353 5354 5354 5352 5355 5358 5354 5352 5350 5349 5347 5344 5342 5339 5338 5336 5333 5331 5328 5325 5321 5318 5315 5312 5308 5305 5301 5297 5294 5289
5350 5350 5348 5347 5345 5344 5346 5350 5348 5346 5345 5345 5346 5345 5343 5344 5347 5347 5346 5346 5344 5342 5341 5341 5339 5337 5334 5333 5331 5329 5327 5324 5321 5318 5315 5312 5309 5306 5303 5300 5296 5293 5289 5284
5340 5339 5338 5336 5335 5338 5340 5339 5338 5338 5338 5339 5340 5340 5337 5336 5336 5339 5338 5337 5336 5334 5334 5334 5332 5330 5328 5326 5324 5322 5320 5318 5315 5312 5310 5307 5304 5301 5298 5295 5291 5288 5284 5280
5331 5332 5332 5331 5331 5331 5330 5329 5329 5331 5331 5331 5334 5334 5332 5331 5329 5329 5329 5329 5328 5327 5326 5326 5325 5324 5322 5320 5318 5316 5314 5312 5310 5307 5304 5301 5299 5296 5293 5290 5286 5283 5280 5276
5324 5324 5323 5324 5326 5324 5321 5320 5320 5322 5323 5323 5324 5327 5326 5325 5323 5323 5322 5321 5321 5321 5320 5320 5319 5318 5316 5314 5312 5310 5309 5307 5305 5302 5299 5297 5294 5291 5288 5285 5282 5279 5275 5272